Temp
6 6 6 6 6 6 5 5 5 5 5 5 4 4 4 4 4 3 3 3 3 3 3 3 3 3 3 3 3 3 3 2 2 2 2 2 2 1 1 1 1 1 1 0 0 0 0 0 0 1 1 1 1 1 0 0 0 0 0 0 0 0 0 0 0 0 0 0 0
6 6 6 5 5 5 5 5 5 4 4 4 4 4 3 3 3 3 3 3 3 3 2 2 2 2 2 2 2 2 2 2 2 2 1 1 1 1 1 1 1 1 1 1 0 -0 -0 -0 -0 -0 0 0 0 -0 -0 -0 -0 -0 -0 -0 -0 -0 -0 -0 -0 -0 -0 -0 -0
6 5 5 5 5 4 4 4 4 4 4 3 3 3 3 3 3 3 3 2 2 2 2 2 2 2 2 2 2 2 2 2 2 1 1 1 1 1 1 1 0 0 0 0 0 -0 -1 -1 -1 -1 -1 -1 -1 -1 -1 -1 -1 -1 -1 -1 -1 -1 -1 -1 -1 -1 -1 -1 -1
5 5 4 4 4 4 4 3 3 3 3 3 3 3 3 3 3 2 2 2 2 2 2 2 1 1 1 1 1 1 1 1 1 1 1 0 0 0 -0 -0 -0 -0 -0 -0 -1 -1 -2 -2 -3 -3 -3 -3 -3 -2 -2 -2 -1 -1 -1 -1 -1 -1 -1 -1 -2 -2 -2 -2 -2
4 4 4 4 3 3 3 3 3 3 3 3 3 3 2 2 2 2 2 2 2 1 1 1 1 1 1 1 1 1 1 1 1 1 1 0 0 -0 -0 -1 -1 -1 -1 -1 -1 -2 -2 -2 -3 -3 -4 -4 -3 -3 -3 -2 -2 -2 -2 -2 -2 -2 -2 -2 -3 -3 -3 -3 -3
4 3 3 3 3 3 3 3 2 2 2 2 2 2 2 2 2 2 1 1 1 1 1 1 1 1 1 0 0 0 0 0 0 0 0 0 -0 -0 -1 -1 -1 -1 -1 -2 -2 -2 -2 -2 -3 -3 -4 -4 -4 -4 -3 -3 -3 -3 -2 -2 -2 -3 -3 -3 -3 -4 -4 -4 -4
3 3 3 3 3 2 2 2 2 2 2 2 2 2 2 1 1 1 1 1 1 0 0 0 0 0 0 0 0 0 0 0 0 -0 -0 -0 -1 -1 -1 -1 -1 -2 -2 -2 -2 -2 -2 -2 -2 -3 -3 -4 -4 -4 -4 -4 -3 -3 -3 -3 -3 -3 -3 -4 -4 -4 -4 -4 -4
3 3 2 2 2 2 2 2 2 2 2 2 1 1 1 1 1 1 0 0 -0 -0 -0 -0 -0 -0 -0 -0 -0 -0 -0 -0 -0 -1 -1 -1 -1 -2 -2 -2 -2 -2 -2 -2 -2 -2 -2 -2 -3 -3 -3 -4 -4 -4 -4 -4 -4 -3 -3 -3 -3 -4 -4 -4 -4 -4 -4 -4 -4
2 2 2 2 2 2 2 2 2 1 1 1 1 1 1 1 0 0 -0 -0 -1 -1 -1 -1 -1 -1 -1 -1 -1 -1 -1 -1 -1 -1 -1 -2 -2 -2 -2 -2 -2 -1 -2 -2 -2 -2 -2 -3 -3 -3 -3 -4 -4 -4 -4 -4 -4 -4 -3 -3 -4 -4 -4 -4 -4 -4 -5 -5 -5
2 2 2 2 1 1 1 1 1 1 1 1 1 1 1 1 0 -0 -0 -1 -1 -1 -1 -1 -1 -1 -1 -1 -1 -1 -1 -1 -1 -1 -2 -2 -2 -2 -2 -2 -2 -2 -2 -2 -2 -3 -3 -3 -3 -3 -4 -4 -4 -4 -4 -4 -4 -3 -3 -4 -4 -4 -4 -4 -4 -5 -5 -5 -5
1 1 1 1 1 1 1 1 1 1 1 1 1 1 1 0 0 -0 -0 -1 -1 -1 -2 -2 -2 -2 -2 -2 -2 -2 -1 -1 -1 -2 -2 -2 -2 -2 -2 -2 -2 -2 -2 -3 -3 -3 -3 -3 -3 -3 -3 -3 -3 -3 -3 -3 -3 -4 -4 -4 -4 -4 -4 -4 -5 -5 -5 -5 -5
1 1 1 1 1 1 1 1 1 1 1 1 1 1 1 0 0 -0 -0 -1 -1 -2 -2 -2 -2 -2 -2 -2 -2 -2 -2 -2 -2 -2 -2 -2 -2 -2 -2 -2 -3 -3 -3 -3 -3 -3 -3 -3 -3 -3 -3 -3 -3 -3 -3 -3 -4 -4 -4 -4 -4 -4 -4 -4 -5 -5 -5 -5 -5
1 1 1 1 1 1 1 1 1 1 1 1 1 0 0 0 0 0 -0 -1 -1 -1 -2 -2 -2 -2 -2 -2 -2 -2 -2 -2 -2 -2 -2 -2 -3 -3 -3 -3 -3 -3 -3 -3 -3 -3 -3 -3 -3 -3 -3 -3 -3 -3 -4 -4 -4 -4 -4 -4 -4 -4 -4 -5 -5 -5 -5 -5 -5
1 1 1 1 1 1 1 1 1 1 1 1 0 0 0 0 0 0 -0 -0 -1 -1 -2 -2 -2 -2 -2 -2 -2 -2 -2 -2 -2 -2 -2 -3 -3 -3 -3 -3 -3 -3 -3 -4 -4 -4 -3 -3 -3 -3 -3 -3 -4 -4 -4 -4 -4 -4 -4 -4 -4 -4 -4 -5 -5 -5 -5 -5 -5
1 1 1 1 1 1 1 1 1 1 1 0 0 0 0 0 0 0 -0 -0 -1 -1 -1 -2 -2 -2 -2 -2 -2 -2 -2 -2 -2 -2 -3 -3 -3 -3 -3 -3 -4 -4 -4 -4 -4 -4 -4 -4 -4 -4 -4 -4 -4 -4 -4 -4 -4 -4 -4 -4 -4 -4 -5 -5 -5 -5 -5 -5 -5
1 1 1 1 1 1 1 1 1 0 0 0 0 0 0 0 0 0 -0 -0 -0 -1 -1 -2 -2 -2 -2 -2 -2 -2 -2 -2 -3 -3 -3 -3 -3 -3 -3 -4 -4 -4 -4 -4 -4 -4 -4 -4 -4 -4 -4 -4 -4 -4 -4 -4 -4 -4 -4 -4 -4 -4 -5 -5 -5 -5 -5 -5 -5
1 1 1 1 1 1 1 1 0 0 0 -0 -0 0 0 0 0 -0 -0 -0 -0 -1 -2 -2 -2 -2 -2 -2 -3 -3 -3 -3 -3 -3 -3 -3 -3 -3 -3 -4 -4 -3 -3 -3 -3 -3 -3 -3 -4 -4 -4 -4 -4 -4 -4 -4 -4 -4 -4 -4 -5 -5 -5 -5 -5 -5 -5 -5 -6
1 1 1 1 1 1 1 0 0 -0 -0 -0 -0 -0 -0 -0 -0 -0 -0 -0 -1 -1 -2 -3 -3 -2 -2 -3 -3 -3 -3 -3 -3 -3 -3 -3 -3 -3 -4 -3 -3 -3 -3 -3 -3 -3 -3 -3 -4 -4 -4 -4 -4 -4 -4 -4 -4 -4 -4 -5 -5 -5 -5 -5 -5 -5 -6 -6 -6
0 1 1 1 0 0 0 0 -0 -0 -0 -0 -0 -0 -0 -0 -0 -0 -0 -0 -1 -1 -2 -3 -3 -3 -3 -3 -3 -3 -3 -3 -3 -3 -3 -3 -4 -4 -4 -4 -3 -3 -3 -3 -3 -3 -3 -4 -4 -4 -4 -4 -4 -4 -4 -4 -4 -5 -5 -5 -5 -5 -5 -5 -6 -6 -6 -6 -6
0 0 0 0 0 0 -0 -0 -0 -1 -1 -1 -1 -1 -1 -1 -1 -1 -1 -1 -1 -2 -2 -3 -3 -3 -3 -3 -3 -3 -3 -4 -4 -4 -4 -4 -4 -4 -4 -3 -3 -3 -3 -3 -3 -4 -4 -4 -4 -4 -4 -4 -4 -4 -4 -5 -5 -5 -5 -5 -5 -5 -5 -6 -6 -6 -6 -6 -6
0 0 0 0 -0 -0 -0 -1 -1 -1 -1 -1 -1 -1 -1 -1 -1 -1 -1 -2 -2 -3 -3 -3 -3 -3 -3 -3 -3 -3 -3 -4 -4 -4 -4 -4 -4 -4 -3 -3 -3 -3 -3 -4 -4 -4 -4 -4 -4 -4 -4 -4 -4 -4 -5 -5 -5 -5 -5 -5 -5 -6 -6 -6 -6 -6 -6 -7 -7
0 0 -0 -0 -0 -1 -1 -1 -1 -1 -1 -1 -1 -1 -1 -1 -1 -1 -2 -2 -3 -3 -3 -3 -3 -3 -3 -3 -3 -3 -4 -4 -4 -4 -4 -4 -4 -3 -3 -3 -3 -4 -4 -4 -4 -4 -4 -4 -4 -4 -4 -4 -5 -5 -5 -5 -5 -5 -5 -5 -6 -6 -6 -6 -6 -6 -7 -7 -7
-0 -0 -0 -1 -1 -1 -1 -1 -1 -2 -2 -2 -2 -2 -2 -2 -2 -2 -2 -3 -3 -3 -3 -3 -3 -3 -3 -3 -4 -4 -4 -4 -4 -4 -4 -4 -4 -3 -3 -4 -4 -4 -4 -4 -4 -4 -4 -4 -4 -4 -5 -5 -5 -5 -5 -5 -5 -5 -5 -6 -6 -6 -6 -6 -7 -7 -7 -7 -7
-0 -0 -1 -1 -1 -1 -1 -2 -2 -2 -2 -2 -2 -2 -2 -2 -2 -2 -3 -3 -4 -3 -3 -3 -3 -4 -4 -4 -4 -4 -4 -4 -4 -4 -4 -4 -4 -4 -4 -4 -4 -4 -4 -4 -4 -4 -4 -4 -5 -5 -5 -5 -5 -5 -5 -5 -5 -6 -6 -6 -6 -6 -7 -7 -7 -7 -7 -7 -7
-1 -1 -1 -1 -1 -2 -2 -2 -2 -2 -2 -2 -2 -2 -2 -2 -2 -3 -3 -4 -4 -3 -3 -3 -4 -4 -4 -4 -4 -4 -4 -4 -4 -4 -4 -4 -4 -4 -4 -4 -4 -4 -4 -4 -4 -4 -5 -5 -5 -5 -5 -5 -5 -5 -5 -6 -6 -6 -6 -6 -7 -7 -7 -7 -7 -7 -7 -8 -8
-1 -1 -1 -2 -2 -2 -2 -2 -2 -3 -3 -3 -3 -3 -3 -3 -3 -3 -3 -3 -3 -3 -4 -4 -4 -4 -4 -4 -4 -4 -4 -4 -4 -4 -4 -4 -4 -4 -4 -4 -4 -4 -4 -4 -4 -5 -5 -5 -5 -5 -5 -5 -5 -6 -6 -6 -6 -6 -7 -7 -7 -7 -7 -7 -8 -8 -8 -8 -8
-1 -1 -2 -2 -2 -2 -3 -3 -3 -3 -3 -3 -3 -3 -3 -3 -3 -3 -4 -4 -4 -4 -4 -4 -4 -4 -4 -4 -4 -4 -4 -4 -4 -4 -4 -4 -4 -4 -4 -4 -4 -4 -4 -4 -5 -5 -5 -5 -5 -5 -5 -6 -6 -6 -6 -6 -7 -7 -7 -7 -7 -8 -8 -8 -8 -8 -8 -8 -8
-1 -2 -2 -2 -3 -3 -3 -3 -3 -3 -3 -3 -3 -3 -3 -3 -3 -3 -4 -4 -4 -4 -4 -4 -4 -4 -4 -4 -4 -4 -4 -4 -4 -4 -4 -4 -4 -4 -4 -4 -4 -4 -4 -5 -5 -5 -5 -5 -5 -5 -6 -6 -6 -6 -7 -7 -7 -7 -7 -8 -8 -8 -8 -8 -8 -8 -8 -8 -8
-2 -2 -2 -3 -3 -3 -3 -4 -3 -3 -3 -3 -4 -4 -4 -3 -3 -4 -4 -4 -4 -4 -4 -4 -4 -4 -4 -4 -4 -4 -4 -4 -4 -4 -4 -4 -4 -4 -4 -4 -4 -5 -5 -5 -5 -5 -5 -5 -6 -6 -6 -6 -6 -7 -7 -7 -7 -7 -8 -8 -8 -8 -8 -8 -8 -8 -8 -8 -9
-2 -2 -3 -3 -3 -3 -4 -4 -4 -4 -4 -4 -4 -4 -4 -4 -4 -4 -4 -4 -4 -4 -4 -4 -4 -4 -4 -4 -4 -4 -4 -5 -5 -5 -5 -4 -4 -4 -5 -5 -5 -5 -5 -5 -5 -5 -6 -6 -6 -6 -6 -7 -7 -7 -7 -7 -8 -8 -8 -8 -8 -8 -9 -9 -9 -9 -9 -9 -9
-2 -3 -3 -3 -3 -4 -4 -4 -4 -4 -4 -4 -4 -4 -4 -4 -4 -4 -4 -4 -4 -4 -4 -4 -4 -4 -4 -4 -5 -5 -5 -5 -5 -5 -5 -5 -5 -5 -5 -5 -5 -5 -5 -5 -6 -6 -6 -6 -6 -6 -7 -7 -7 -7 -8 -8 -8 -8 -8 -8 -9 -9 -9 -9 -9 -9 -9 -9 -9
-2 -3 -3 -3 -3 -4 -4 -4 -4 -4 -4 -4 -4 -4 -4 -4 -4 -4 -4 -4 -4 -4 -4 -4 -4 -4 -4 -4 -5 -5 -5 -5 -5 -5 -5 -5 -5 -5 -5 -5 -5 -6 -6 -6 -6 -6 -6 -6 -7 -7 -7 -7 -7 -8 -8 -8 -8 -8 -8 -9 -9 -9 -9 -9 -10 -10 -10 -9 -9
-3 -3 -3 -3 -3 -4 -4 -4 -4 -4 -4 -4 -4 -4 -4 -5 -5 -4 -4 -4 -4 -4 -4 -4 -4 -4 -4 -5 -5 -5 -5 -5 -5 -5 -5 -5 -5 -5 -5 -6 -6 -6 -6 -6 -6 -6 -7 -7 -7 -7 -7 -7 -8 -8 -8 -8 -8 -8 -9 -9 -9 -9 -9 -10 -10 -10 -10 -10 -10
-3 -3 -3 -3 -4 -4 -4 -4 -4 -4 -4 -4 -4 -4 -4 -4 -4 -5 -5 -4 -4 -4 -4 -4 -4 -4 -4 -5 -5 -5 -5 -5 -5 -5 -5 -5 -5 -6 -6 -6 -6 -6 -6 -7 -7 -7 -7 -7 -7 -7 -7 -8 -8 -8 -8 -8 -8 -8 -9 -9 -9 -9 -10 -10 -10 -11 -11 -11 -11
-3 -3 -3 -3 -4 -4 -4 -4 -4 -4 -4 -4 -4 -4 -4 -4 -4 -5 -5 -5 -5 -5 -4 -4 -4 -4 -5 -5 -5 -5 -5 -5 -5 -5 -5 -5 -6 -6 -6 -6 -6 -7 -7 -7 -7 -7 -7 -7 -8 -8 -8 -8 -8 -8 -8 -8 -9 -9 -9 -9 -9 -9 -10 -10 -11 -11 -11 -11 -11
-3 -3 -3 -4 -4 -4 -4 -4 -4 -4 -4 -4 -4 -4 -4 -5 -5 -5 -5 -5 -5 -5 -5 -5 -5 -5 -5 -5 -5 -5 -5 -5 -5 -5 -6 -6 -6 -6 -6 -6 -7 -7 -7 -7 -7 -8 -8 -8 -8 -8 -8 -8 -8 -8 -9 -9 -9 -9 -9 -9 -9 -10 -10 -10 -11 -11 -11 -11 -12
-3 -3 -4 -4 -4 -4 -4 -4 -4 -4 -4 -4 -4 -5 -5 -5 -5 -5 -5 -5 -5 -5 -5 -5 -5 -5 -5 -5 -5 -5 -5 -5 -6 -6 -6 -6 -6 -6 -7 -7 -7 -7 -7 -7 -8 -8 -8 -8 -9 -9 -9 -9 -9 -9 -9 -9 -9 -9 -9 -10 -10 -10 -10 -11 -11 -11 -12 -12 -12
-3 -4 -4 -4 -4 -4 -4 -4 -4 -4 -4 -4 -5 -5 -5 -5 -5 -5 -5 -5 -5 -5 -5 -5 -5 -5 -5 -5 -5 -5 -6 -6 -6 -6 -6 -6 -6 -7 -7 -7 -7 -7 -7 -8 -8 -8 -8 -9 -9 -9 -9 -9 -9 -9 -9 -10 -10 -10 -10 -10 -10 -11 -11 -11 -12 -12 -12 -12 -12
-3 -4 -4 -4 -4 -4 -4 -4 -4 -4 -4 -5 -5 -5 -5 -5 -5 -5 -5 -5 -5 -5 -5 -5 -5 -5 -6 -6 -6 -6 -6 -6 -6 -6 -6 -7 -7 -7 -7 -7 -7 -8 -8 -8 -8 -8 -9 -9 -9 -9 -10 -10 -10 -10 -10 -10 -10 -10 -11 -11 -11 -11 -12 -12 -12 -12 -12 -13 -13
-4 -4 -4 -4 -4 -4 -4 -4 -4 -4 -4 -5 -5 -5 -5 -5 -5 -5 -5 -5 -5 -5 -5 -5 -6 -6 -6 -6 -6 -6 -6 -6 -6 -6 -7 -7 -7 -7 -7 -7 -8 -8 -8 -8 -8 -9 -9 -9 -9 -9 -10 -10 -10 -10 -10 -10 -10 -11 -11 -12 -12 -12 -12 -13 -13 -13 -13 -13 -13
-4 -4 -4 -4 -4 -4 -4 -4 -4 -4 -4 -5 -5 -5 -5 -5 -5 -5 -5 -5 -5 -5 -6 -6 -6 -6 -6 -6 -6 -6 -6 -6 -7 -7 -7 -7 -7 -7 -8 -8 -8 -8 -8 -8 -9 -9 -9 -9 -9 -10 -10 -10 -10 -10 -10 -10 -11 -11 -12 -12 -13 -13 -13 -13 -13 -13 -13 -13 -13
Height
1544 1543 1542 1541 1540 1539 1538 1537 1536 1535 1533 1532 1531 1529 1528 1527 1525 1524 1522 1521 1519 1518 1516 1515 1514 1512 1511 1509 1508 1506 1505 1503 1502 1501 1500 1499 1497 1496 1496 1495 1495 1494 1494 1494 1494 1494 1493 1492 1490 1488 1487 1485 1484 1483 1482 1481 1482 1482 1481 1479 1478 1478 1479 1479 1479 1478 1478 1477 1477
1543 1542 1541 1540 1539 1538 1537 1536 1535 1533 1532 1531 1530 1529 1527 1526 1524 1522 1521 1520 1518 1517 1515 1514 1512 1511 1509 1508 1506 1505 1504 1502 1501 1500 1499 1497 1496 1495 1494 1493 1493 1492 1492 1491 1491 1491 1491 1490 1489 1487 1485 1484 1482 1482 1481 1480 1479 1480 1480 1478 1478 1477 1477 1478 1477 1477 1477 1476 1475
1542 1541 1540 1539 1538 1537 1536 1534 1533 1532 1531 1530 1529 1527 1526 1524 1523 1521 1520 1518 1517 1516 1514 1512 1511 1510 1508 1507 1505 1504 1503 1502 1501 1499 1498 1497 1496 1495 1493 1492 1491 1490 1489 1489 1488 1488 1488 1488 1487 1486 1484 1482 1481 1481 1480 1478 1478 1478 1478 1478 1477 1477 1477 1477 1477 1476 1476 1475 1473
1541 1540 1539 1537 1537 1536 1535 1533 1532 1531 1530 1528 1527 1526 1525 1523 1522 1520 1519 1517 1516 1514 1513 1511 1510 1508 1507 1506 1505 1503 1502 1501 1500 1499 1498 1496 1495 1494 1492 1491 1490 1488 1487 1487 1486 1486 1486 1486 1485 1485 1484 1482 1481 1480 1479 1478 1478 1478 1478 1477 1477 1476 1476 1476 1476 1476 1475 1473 1472
1540 1539 1538 1537 1536 1535 1534 1532 1531 1530 1528 1527 1526 1524 1523 1522 1520 1519 1517 1515 1514 1513 1512 1510 1509 1507 1506 1505 1504 1502 1501 1500 1499 1497 1497 1495 1494 1493 1492 1491 1489 1488 1487 1486 1485 1485 1485 1484 1484 1484 1484 1483 1482 1480 1479 1479 1478 1478 1477 1477 1476 1476 1476 1476 1476 1475 1475 1473 1471
1539 1538 1537 1536 1535 1534 1532 1531 1530 1528 1527 1525 1524 1522 1521 1520 1518 1517 1515 1514 1512 1511 1510 1509 1507 1506 1505 1503 1502 1501 1500 1498 1497 1496 1495 1494 1492 1492 1491 1490 1489 1487 1486 1485 1485 1484 1483 1483 1483 1483 1482 1482 1481 1480 1480 1479 1479 1478 1477 1477 1476 1476 1476 1476 1476 1475 1474 1473 1471
1538 1537 1536 1535 1533 1532 1531 1530 1528 1527 1525 1524 1522 1521 1519 1517 1516 1515 1513 1512 1511 1509 1508 1507 1506 1504 1503 1502 1501 1499 1498 1497 1496 1495 1493 1492 1491 1490 1489 1488 1487 1487 1486 1485 1484 1483 1482 1482 1482 1481 1481 1481 1480 1480 1480 1480 1479 1478 1477 1477 1477 1476 1476 1476 1476 1475 1474 1472 1470
1537 1536 1535 1534 1532 1531 1530 1528 1527 1525 1523 1522 1520 1519 1517 1516 1514 1512 1511 1510 1508 1507 1506 1505 1504 1502 1501 1500 1499 1498 1497 1496 1494 1493 1492 1491 1489 1488 1487 1486 1486 1486 1485 1484 1483 1482 1481 1481 1480 1480 1479 1479 1479 1480 1480 1479 1479 1478 1477 1477 1477 1476 1476 1476 1475 1474 1473 1471 1470
1536 1535 1534 1532 1531 1530 1528 1527 1525 1523 1522 1520 1518 1517 1515 1513 1512 1510 1509 1508 1507 1505 1504 1503 1502 1501 1499 1498 1497 1496 1495 1494 1493 1492 1490 1489 1488 1487 1486 1485 1485 1484 1484 1483 1482 1481 1480 1479 1479 1478 1478 1478 1478 1479 1479 1479 1478 1478 1477 1477 1476 1476 1475 1475 1474 1473 1472 1470 1469
1535 1533 1532 1531 1529 1528 1527 1525 1523 1522 1520 1518 1517 1515 1513 1512 1510 1508 1507 1506 1505 1503 1502 1501 1500 1499 1498 1497 1496 1495 1493 1492 1491 1490 1489 1488 1487 1487 1485 1485 1483 1483 1482 1482 1482 1481 1480 1479 1478 1478 1477 1477 1477 1478 1478 1478 1478 1477 1477 1476 1476 1475 1474 1474 1473 1472 1471 1469 1468
1534 1532 1531 1530 1528 1527 1525 1523 1522 1520 1518 1517 1515 1513 1512 1510 1508 1507 1505 1504 1503 1502 1501 1500 1499 1497 1497 1495 1494 1493 1492 1491 1490 1489 1488 1487 1487 1486 1485 1484 1483 1482 1481 1481 1481 1481 1480 1479 1478 1478 1477 1477 1477 1477 1477 1477 1477 1477 1476 1476 1475 1474 1473 1472 1472 1471 1469 1468 1467
1533 1532 1530 1529 1527 1525 1523 1522 1520 1518 1517 1515 1513 1512 1510 1508 1507 1505 1503 1502 1501 1499 1498 1498 1497 1496 1495 1494 1492 1492 1491 1490 1489 1488 1487 1487 1486 1485 1484 1483 1483 1482 1481 1481 1481 1480 1480 1479 1478 1478 1477 1476 1476 1476 1476 1476 1476 1476 1475 1474 1474 1473 1472 1472 1470 1469 1468 1467 1466
1532 1530 1529 1527 1526 1524 1522 1520 1518 1517 1515 1513 1512 1510 1508 1507 1505 1503 1502 1500 1498 1497 1496 1496 1495 1494 1493 1492 1491 1490 1489 1489 1488 1487 1487 1486 1485 1484 1484 1483 1482 1482 1481 1481 1481 1480 1480 1479 1478 1477 1477 1476 1475 1475 1475 1475 1475 1474 1474 1473 1473 1472 1471 1470 1469 1468 1467 1466 1465
1531 1529 1527 1526 1524 1522 1521 1519 1517 1515 1513 1512 1510 1509 1507 1505 1504 1502 1500 1499 1497 1496 1495 1494 1493 1493 1492 1491 1490 1489 1488 1487 1487 1486 1486 1485 1484 1484 1483 1483 1482 1482 1482 1481 1481 1480 1479 1479 1478 1477 1477 1476 1475 1475 1474 1474 1474 1473 1473 1472 1472 1471 1470 1469 1468 1467 1466 1465 1463
1530 1528 1526 1525 1523 1521 1519 1517 1516 1514 1512 1511 1509 1508 1506 1505 1503 1501 1499 1498 1496 1495 1493 1493 1492 1492 1491 1490 1489 1488 1487 1487 1486 1486 1485 1484 1484 1484 1483 1483 1483 1482 1482 1482 1481 1480 1479 1479 1478 1477 1477 1476 1475 1475 1474 1474 1473 1472 1472 1471 1470 1469 1469 1468 1467 1466 1464 1463 1462
1528 1527 1525 1523 1521 1520 1518 1516 1514 1513 1511 1510 1508 1507 1506 1504 1502 1501 1499 1497 1495 1494 1492 1492 1491 1491 1490 1489 1488 1487 1487 1486 1485 1485 1485 1484 1484 1484 1483 1483 1483 1483 1482 1482 1481 1480 1480 1479 1478 1477 1476 1476 1475 1474 1474 1473 1472 1472 1471 1470 1469 1468 1467 1467 1465 1464 1463 1462 1460
1527 1525 1524 1522 1520 1518 1517 1515 1513 1512 1511 1509 1508 1507 1505 1504 1502 1500 1498 1497 1495 1493 1492 1491 1491 1491 1490 1489 1488 1487 1486 1486 1485 1485 1485 1484 1484 1483 1483 1483 1483 1482 1482 1482 1481 1480 1479 1478 1477 1477 1476 1475 1474 1474 1473 1472 1472 1471 1470 1469 1468 1467 1466 1465 1464 1463 1461 1460 1459
1526 1524 1522 1521 1519 1517 1516 1514 1512 1511 1510 1508 1507 1506 1505 1503 1502 1500 1498 1496 1495 1493 1492 1491 1491 1490 1490 1489 1488 1487 1487 1486 1486 1485 1485 1484 1484 1483 1483 1483 1482 1482 1482 1481 1480 1479 1479 1478 1477 1476 1476 1475 1474 1473 1472 1472 1471 1470 1469 1468 1467 1466 1465 1463 1462 1461 1460 1459 1457
1525 1523 1521 1519 1518 1516 1515 1513 1512 1510 1509 1508 1507 1506 1504 1503 1501 1499 1497 1496 1494 1493 1492 1491 1491 1491 1490 1489 1488 1488 1487 1487 1486 1485 1485 1484 1484 1483 1483 1482 1482 1482 1481 1480 1479 1479 1478 1477 1477 1476 1475 1474 1473 1472 1471 1471 1470 1469 1467 1467 1466 1464 1463 1462 1461 1460 1458 1457 1456
1523 1522 1520 1518 1517 1515 1514 1512 1511 1510 1509 1507 1506 1505 1504 1502 1501 1499 1497 1495 1494 1493 1492 1492 1491 1491 1490 1489 1488 1488 1487 1487 1486 1485 1485 1484 1484 1483 1482 1482 1482 1481 1480 1479 1479 1478 1477 1477 1476 1475 1474 1473 1472 1471 1470 1469 1468 1467 1466 1465 1464 1463 1462 1461 1459 1458 1457 1456 1455
1522 1521 1519 1517 1516 1514 1513 1512 1511 1509 1508 1507 1506 1505 1503 1502 1500 1499 1497 1495 1494 1493 1493 1492 1492 1491 1490 1489 1488 1488 1487 1487 1486 1485 1485 1484 1483 1483 1482 1482 1481 1480 1479 1479 1478 1477 1476 1476 1475 1474 1473 1472 1471 1470 1469 1468 1467 1466 1465 1463 1462 1462 1460 1459 1458 1457 1456 1454 1453
1521 1520 1518 1516 1515 1513 1512 1511 1510 1509 1508 1507 1505 1504 1503 1502 1500 1498 1497 1495 1494 1493 1493 1492 1492 1491 1490 1489 1488 1488 1487 1486 1486 1485 1484 1483 1483 1482 1482 1481 1480 1479 1479 1478 1477 1476 1475 1475 1474 1473 1472 1471 1470 1468 1467 1467 1465 1464 1463 1462 1461 1460 1459 1457 1457 1455 1454 1453 1452
1520 1519 1517 1516 1514 1513 1512 1511 1509 1508 1507 1506 1505 1503 1502 1501 1500 1498 1497 1495 1494 1494 1493 1492 1492 1491 1490 1489 1488 1487 1487 1486 1485 1484 1484 1483 1482 1482 1481 1480 1479 1478 1478 1477 1476 1475 1474 1473 1472 1472 1471 1469 1468 1467 1466 1465 1464 1462 1462 1460 1459 1458 1457 1456 1455 1454 1452 1451 1450
1519 1518 1516 1515 1513 1512 1511 1510 1508 1507 1506 1505 1504 1502 1502 1501 1499 1498 1497 1496 1495 1494 1493 1492 1492 1491 1490 1489 1488 1487 1486 1485 1484 1484 1483 1482 1482 1481 1480 1479 1478 1478 1477 1476 1475 1474 1473 1472 1471 1470 1469 1468 1467 1466 1465 1463 1462 1461 1460 1458 1457 1456 1455 1454 1453 1452 1451 1449 1448
1518 1517 1515 1514 1512 1511 1510 1509 1507 1506 1505 1504 1503 1502 1501 1500 1499 1498 1497 1496 1495 1494 1493 1492 1492 1491 1490 1489 1488 1487 1486 1485 1484 1483 1482 1482 1481 1480 1479 1478 1478 1477 1476 1475 1474 1473 1472 1471 1470 1469 1468 1467 1466 1464 1463 1462 1461 1459 1458 1457 1456 1454 1453 1452 1451 1450 1449 1448 1447
1517 1516 1514 1513 1512 1510 1509 1508 1507 1506 1505 1503 1502 1502 1500 1499 1498 1497 1497 1496 1495 1494 1493 1492 1491 1490 1489 1488 1487 1487 1486 1485 1483 1482 1482 1481 1480 1479 1478 1478 1477 1476 1475 1474 1473 1472 1471 1470 1469 1468 1467 1465 1464 1462 1461 1460 1459 1457 1456 1455 1454 1452 1451 1450 1449 1448 1447 1446 1445
1517 1515 1513 1512 1511 1510 1508 1507 1506 1505 1504 1503 1502 1501 1500 1499 1498 1497 1496 1495 1494 1494 1493 1492 1491 1490 1489 1488 1487 1486 1485 1484 1483 1482 1481 1480 1479 1478 1478 1477 1476 1475 1474 1473 1472 1471 1470 1469 1468 1467 1465 1463 1462 1461 1460 1458 1457 1456 1455 1453 1452 1451 1450 1448 1447 1446 1445 1444 1443
1516 1514 1512 1511 1510 1509 1508 1507 1506 1505 1503 1502 1502 1501 1500 1499 1498 1497 1496 1495 1494 1493 1492 1491 1490 1489 1488 1487 1486 1485 1484 1483 1482 1481 1481 1480 1479 1478 1477 1476 1475 1474 1473 1472 1471 1470 1468 1467 1466 1465 1463 1462 1460 1459 1458 1457 1455 1454 1453 1452 1451 1449 1448 1447 1445 1444 1442 1441 1440
1515 1513 1512 1510 1509 1508 1507 1506 1505 1504 1503 1502 1501 1500 1499 1498 1497 1496 1495 1494 1493 1492 1492 1490 1489 1488 1487 1486 1485 1484 1483 1482 1482 1481 1480 1479 1478 1477 1476 1475 1474 1473 1472 1471 1470 1468 1467 1466 1465 1463 1462 1461 1459 1457 1456 1455 1453 1452 1451 1450 1448 1447 1446 1444 1443 1442 1440 1439 1438
1514 1512 1511 1510 1509 1507 1507 1506 1505 1504 1503 1502 1501 1500 1499 1498 1497 1496 1495 1494 1493 1492 1491 1490 1489 1487 1487 1486 1484 1483 1482 1482 1481 1480 1479 1478 1477 1476 1475 1474 1473 1472 1471 1469 1468 1467 1466 1464 1463 1462 1460 1459 1457 1456 1455 1453 1452 1450 1449 1447 1446 1445 1443 1442 1441 1440 1438 1437 1436
1513 1512 1510 1509 1508 1507 1506 1505 1504 1503 1502 1501 1500 1499 1498 1497 1496 1495 1494 1493 1492 1491 1490 1489 1488 1487 1486 1485 1484 1483 1482 1481 1480 1479 1478 1477 1476 1475 1474 1473 1472 1470 1469 1468 1467 1465 1464 1463 1462 1460 1459 1457 1456 1454 1453 1452 1450 1448 1447 1446 1444 1443 1442 1440 1439 1438 1437 1435 1434
1512 1511 1510 1508 1507 1506 1505 1504 1503 1502 1501 1501 1499 1498 1497 1497 1496 1495 1494 1492 1492 1491 1489 1488 1487 1486 1485 1484 1483 1482 1481 1481 1480 1479 1478 1477 1476 1474 1473 1472 1471 1469 1467 1466 1465 1464 1462 1461 1460 1458 1457 1456 1454 1452 1451 1450 1448 1447 1445 1444 1442 1441 1439 1438 1437 1436 1435 1433 1432
1511 1510 1509 1508 1507 1506 1505 1504 1503 1502 1501 1500 1499 1498 1497 1496 1495 1494 1493 1492 1491 1490 1489 1487 1486 1485 1484 1483 1482 1482 1481 1480 1479 1478 1477 1476 1475 1473 1472 1471 1469 1468 1466 1465 1463 1462 1461 1459 1458 1457 1455 1454 1452 1451 1449 1448 1446 1445 1443 1442 1440 1439 1437 1436 1435 1433 1432 1432 1430
1510 1509 1508 1507 1506 1505 1504 1503 1502 1501 1500 1499 1498 1497 1496 1495 1494 1493 1492 1491 1490 1489 1488 1487 1486 1485 1484 1483 1482 1481 1480 1479 1478 1477 1476 1475 1474 1472 1471 1470 1468 1467 1465 1463 1462 1460 1459 1457 1456 1455 1453 1452 1450 1449 1447 1446 1444 1442 1441 1440 1438 1437 1435 1434 1432 1431 1430 1429 1428
1509 1508 1507 1506 1505 1504 1503 1502 1502 1500 1499 1498 1497 1496 1495 1494 1493 1492 1491 1490 1489 1488 1487 1487 1485 1484 1483 1482 1482 1481 1480 1479 1477 1477 1475 1474 1473 1472 1470 1469 1467 1466 1464 1462 1461 1459 1457 1456 1454 1453 1451 1450 1448 1446 1445 1443 1442 1440 1439 1437 1436 1434 1433 1432 1430 1429 1428 1427 1425
1508 1507 1506 1505 1505 1504 1503 1502 1501 1500 1499 1497 1497 1495 1494 1493 1492 1491 1490 1489 1488 1487 1487 1486 1485 1484 1483 1482 1481 1480 1479 1478 1477 1476 1474 1473 1472 1470 1469 1468 1466 1465 1463 1461 1460 1458 1456 1454 1452 1451 1449 1447 1446 1444 1442 1441 1439 1438 1436 1435 1433 1432 1430 1429 1427 1426 1425 1424 1423
1507 1507 1506 1505 1504 1503 1502 1501 1500 1499 1498 1497 1496 1494 1493 1492 1491 1490 1489 1488 1487 1487 1486 1485 1484 1483 1482 1481 1480 1479 1478 1477 1476 1475 1473 1472 1471 1469 1468 1467 1465 1464 1462 1460 1459 1457 1455 1453 1452 1449 1447 1446 1444 1442 1440 1438 1437 1435 1434 1432 1431 1429 1428 1426 1425 1424 1423 1422 1421
1507 1506 1505 1504 1503 1502 1501 1500 1499 1498 1497 1496 1495 1493 1492 1491 1490 1489 1488 1487 1486 1486 1485 1484 1483 1482 1482 1481 1480 1478 1477 1476 1475 1474 1472 1471 1470 1468 1467 1466 1464 1462 1461 1460 1458 1456 1455 1453 1451 1449 1447 1444 1442 1441 1438 1437 1435 1433 1431 1430 1428 1427 1425 1424 1423 1422 1421 1420 1419
1506 1505 1504 1503 1502 1501 1500 1499 1498 1497 1496 1495 1493 1492 1492 1490 1489 1488 1487 1487 1486 1485 1484 1483 1482 1482 1481 1480 1479 1477 1476 1475 1474 1473 1471 1470 1468 1467 1466 1464 1463 1462 1460 1459 1457 1455 1453 1452 1450 1448 1446 1443 1441 1439 1437 1435 1433 1431 1429 1427 1426 1425 1423 1422 1421 1420 1419 1417 1417
1505 1504 1503 1502 1501 1500 1499 1498 1497 1496 1495 1493 1492 1491 1490 1489 1488 1487 1487 1486 1485 1484 1483 1483 1482 1481 1480 1479 1478 1477 1476 1474 1473 1472 1470 1469 1467 1466 1465 1463 1462 1461 1459 1457 1456 1454 1452 1451 1449 1447 1445 1442 1440 1438 1436 1433 1431 1429 1427 1426 1424 1423 1421 1420 1419 1418 1417 1416 1415
1504 1503 1502 1501 1500 1499 1498 1497 1496 1495 1494 1492 1492 1490 1489 1488 1487 1487 1486 1485 1484 1484 1483 1482 1481 1480 1479 1478 1477 1476 1475 1474 1472 1471 1469 1468 1467 1465 1464 1462 1461 1460 1458 1457 1455 1453 1451 1450 1448 1446 1444 1441 1439 1437 1434 1432 1430 1427 1426 1424 1423 1422 1420 1419 1418 1417 1416 1415 1414
Wind_Speed
23 23 23 23 24 24 24 24 25 25 26 27 27 28 29 29 29 29 29 30 30 31 32 32 31 31 31 30 28 26 24 21 19 17 16 15 14 14 15 15 15 14 13 13 12 12 12 13 13 14 15 15 15 16 16 16 15 16 17 17 17 17 18 20 21 22 23 24 25
25 25 25 25 25 25 25 26 26 27 27 28 28 29 30 30 30 31 31 32 32 33 33 33 33 33 32 31 30 27 25 21 18 15 13 12 12 12 13 14 15 15 14 13 12 11 10 10 10 11 12 12 12 13 14 15 14 15 16 18 18 19 20 21 22 23 24 25 25
26 26 26 26 27 27 27 28 28 29 29 30 30 31 31 32 32 33 33 33 34 34 34 34 34 33 32 31 29 27 24 22 19 16 15 14 14 14 15 15 15 15 15 15 13 11 10 11 12 13 13 13 13 13 13 14 15 16 18 19 20 21 22 22 23 24 24 23 23
26 27 27 28 28 29 29 30 30 31 31 32 32 33 33 33 34 34 34 35 35 35 34 34 34 33 32 30 27 25 23 22 20 20 19 19 18 17 16 15 15 15 15 14 12 11 12 14 16 17 18 18 18 17 17 17 17 18 18 19 19 20 20 20 20 20 20 19 19
27 27 28 29 29 30 30 31 32 33 33 34 34 34 35 35 35 35 35 36 36 35 35 34 33 32 31 29 27 25 24 24 23 23 23 23 22 21 18 17 16 15 14 13 13 14 16 17 18 18 18 19 19 19 19 18 18 18 18 18 18 18 17 17 16 16 15 15 15
28 28 29 29 30 31 32 32 33 34 35 35 36 36 36 36 36 36 36 36 36 35 35 34 32 31 30 29 27 26 26 25 25 25 25 25 25 24 22 19 17 16 16 16 17 19 19 19 18 17 16 17 18 18 18 18 17 17 16 16 16 15 15 15 15 15 14 14 13
28 29 30 31 32 33 34 34 35 36 36 37 37 37 37 37 37 37 36 36 36 35 34 33 32 31 30 28 28 27 26 26 26 25 25 24 24 23 22 21 20 19 19 20 20 19 18 17 16 15 15 16 16 16 16 16 16 15 15 14 15 15 15 15 16 16 16 15 15
29 31 32 33 34 35 36 36 37 37 38 38 38 38 38 38 38 37 36 35 35 34 33 32 31 29 29 28 27 27 26 26 26 25 24 23 21 21 20 19 18 19 20 20 19 17 15 14 14 14 14 14 15 15 15 15 15 15 15 15 16 17 17 18 18 18 18 18 17
31 33 34 35 36 37 38 38 38 38 39 39 39 38 38 38 37 36 35 34 33 32 31 30 29 28 28 27 27 26 26 25 25 25 23 21 19 18 17 17 18 19 20 19 17 15 14 13 12 12 13 13 13 14 14 15 15 16 17 17 18 19 20 20 20 20 20 20 20
33 35 36 37 38 38 39 39 38 38 38 39 39 38 38 37 36 35 34 33 32 30 29 28 27 27 27 26 26 25 25 25 25 24 22 19 17 16 17 18 18 18 17 16 15 13 13 13 12 12 13 13 13 14 15 15 16 18 19 20 21 22 22 22 22 22 22 22 22
34 35 37 38 38 39 39 38 38 38 38 38 38 37 36 35 34 33 32 32 30 29 27 27 26 26 26 25 25 24 24 24 25 23 20 17 15 16 17 17 16 15 14 13 13 13 13 13 13 13 14 14 14 15 16 17 18 20 21 22 23 24 24 24 24 24 23 24 24
34 36 37 38 38 38 38 38 38 37 37 37 36 35 33 32 32 31 31 30 29 28 27 26 25 25 25 24 24 24 24 24 24 22 18 15 15 15 16 15 14 14 13 13 13 14 14 14 14 15 15 15 16 17 17 18 20 21 22 23 24 24 25 25 25 25 24 24 24
35 37 38 38 38 37 37 37 37 37 37 35 34 32 31 30 30 29 30 30 29 27 26 24 24 23 24 24 24 23 23 23 22 19 16 14 14 14 14 13 13 14 14 14 14 14 15 15 16 16 16 16 17 17 18 19 20 20 21 22 24 24 25 25 25 25 25 25 25
36 37 38 38 37 37 36 37 37 37 35 33 31 29 28 28 28 28 28 28 27 25 23 22 22 22 23 23 23 22 21 21 19 16 13 12 12 12 12 13 13 14 14 14 15 15 15 15 16 16 16 16 17 17 18 18 19 20 21 23 24 25 25 26 26 26 25 25 26
37 38 38 37 37 36 36 37 37 36 33 30 28 27 26 27 27 28 27 26 24 22 20 20 20 20 21 21 21 20 19 17 14 12 10 10 10 10 11 12 13 14 14 14 14 14 14 14 15 15 15 16 16 16 17 18 19 20 22 23 24 25 25 26 26 26 26 26 26
38 38 37 37 36 36 36 36 36 33 30 27 25 24 25 26 27 27 26 24 22 21 20 20 19 19 19 19 17 16 14 11 9 9 9 9 9 9 10 11 12 13 13 14 14 14 14 14 14 14 15 15 16 16 17 18 19 21 22 23 24 25 25 25 25 25 25 26 26
38 38 37 37 36 36 36 35 34 30 27 23 22 23 24 25 26 26 25 23 21 21 21 21 19 17 17 16 14 12 10 8 9 9 9 8 8 9 9 10 11 12 13 13 14 14 14 14 14 14 15 15 16 16 17 18 20 21 22 23 23 24 24 24 24 24 25 25 26
38 38 37 37 36 36 35 33 31 27 23 21 21 22 23 24 25 25 24 22 21 21 22 22 19 17 15 14 13 12 11 11 11 10 9 8 9 9 10 11 12 13 13 14 14 14 14 14 14 14 15 15 16 17 18 19 20 21 22 22 23 23 23 23 23 23 24 24 25
38 38 37 37 36 35 33 30 27 23 21 20 20 21 22 23 23 23 23 22 22 22 22 22 19 17 16 15 14 13 12 12 11 10 9 9 10 10 11 12 13 14 14 14 14 14 14 14 14 15 15 16 17 18 19 20 21 22 22 23 23 23 23 23 23 23 23 23 24
37 37 37 37 36 34 30 27 23 21 20 20 21 21 22 22 22 22 22 22 22 22 22 21 19 17 16 15 13 12 11 11 10 10 10 10 11 12 13 13 14 14 14 14 14 14 14 14 15 15 16 17 18 19 20 21 22 23 24 24 24 24 24 24 24 24 24 24 24
37 37 37 36 34 31 27 23 20 19 19 20 21 21 21 21 21 21 21 21 21 21 20 19 17 16 14 13 11 10 10 10 11 11 12 12 12 13 13 14 14 14 14 14 14 14 15 15 16 16 17 18 19 21 22 23 24 25 25 26 26 25 25 25 25 24 24 24 24
37 37 36 35 32 28 24 20 18 18 19 20 21 21 21 21 21 20 20 19 19 18 17 16 15 14 13 11 10 10 10 11 11 12 12 13 13 13 14 14 14 14 14 14 15 15 16 17 17 18 19 20 21 23 24 25 26 26 27 27 27 27 26 26 25 25 25 25 25
36 36 35 33 30 26 21 18 17 18 19 20 20 20 20 21 21 20 19 18 16 15 14 14 13 12 11 11 10 11 11 11 12 12 12 12 13 13 14 14 14 14 15 15 16 17 17 18 19 20 21 22 23 24 25 26 27 28 28 28 28 27 27 26 25 25 25 25 25
36 35 34 31 28 24 20 17 17 17 18 19 19 19 19 20 20 20 19 17 15 14 13 12 12 12 11 11 11 12 12 12 12 12 12 12 13 13 14 14 15 15 16 16 17 18 19 19 20 21 22 24 25 26 27 28 28 29 29 29 28 28 27 26 25 25 25 25 26
35 35 33 30 26 22 19 17 17 17 18 18 18 18 18 18 19 18 17 15 14 13 12 12 12 12 12 12 12 13 13 13 13 13 13 13 13 14 14 15 15 16 17 18 19 19 20 21 22 23 24 25 27 27 28 28 29 29 28 28 28 27 26 26 25 25 25 26 27
35 34 32 28 24 20 18 17 17 17 18 18 17 17 17 17 17 16 14 13 12 11 11 12 12 13 13 14 14 14 14 14 14 14 14 14 14 15 15 16 17 17 18 19 20 21 22 23 24 25 26 27 28 28 28 28 28 28 27 27 26 26 25 25 25 25 25 26 26
34 33 30 26 22 19 17 17 17 18 18 18 17 16 16 16 15 14 12 11 11 11 12 12 13 14 14 15 15 15 15 15 14 14 14 15 15 16 16 17 18 19 20 21 22 23 24 25 26 27 28 28 28 28 28 27 27 26 25 24 24 24 24 24 24 24 25 26 26
33 31 29 24 20 18 17 17 18 19 19 19 17 16 15 15 15 13 12 11 12 12 13 13 14 14 15 15 15 15 15 15 14 15 15 15 16 17 18 19 20 21 22 23 24 25 26 27 28 28 28 28 28 28 27 26 25 24 23 23 22 22 23 23 23 24 25 26 27
32 30 27 23 19 17 16 17 18 19 19 19 18 17 16 16 15 14 13 13 13 13 13 14 14 14 15 15 15 15 15 14 15 15 15 16 17 18 19 20 21 23 24 25 26 27 28 28 28 28 28 27 27 27 26 26 25 24 23 23 22 22 23 23 24 25 26 27 28
30 28 25 21 18 16 16 16 17 17 18 18 18 17 17 16 16 15 14 14 13 13 14 14 14 14 15 15 15 15 15 15 15 15 16 17 18 19 20 22 23 25 26 27 27 28 28 28 28 28 27 27 26 26 25 25 25 24 24 24 24 24 24 25 26 26 27 27 28
29 26 23 20 18 16 15 15 15 15 16 16 17 17 17 16 16 15 14 14 14 14 14 14 15 15 15 15 15 15 15 15 16 16 17 18 19 21 22 23 25 26 27 27 28 28 28 28 27 27 27 26 26 25 25 25 25 25 25 25 26 26 27 27 26 26 26 26 27
28 25 23 20 18 16 15 14 14 14 14 14 15 16 16 16 15 15 15 15 15 15 15 15 16 15 15 15 15 15 15 16 16 17 18 20 21 22 24 25 25 26 27 28 28 28 28 27 27 27 26 26 26 26 26 25 26 26 26 26 27 27 27 27 26 25 25 26 26
27 24 22 20 18 17 15 14 14 14 14 14 14 15 16 16 16 15 15 16 16 16 16 16 17 16 16 16 16 16 16 17 18 19 20 22 23 24 25 25 26 26 27 27 28 28 27 27 27 27 27 27 27 27 27 27 27 27 27 28 28 28 28 27 26 25 25 25 25
26 24 21 19 18 17 16 16 15 15 15 15 15 15 16 16 16 17 17 17 16 16 16 17 17 17 17 16 16 16 17 18 19 21 22 23 24 24 25 25 26 26 27 27 27 27 27 27 28 28 28 28 29 29 29 29 29 29 29 29 29 29 28 27 26 25 25 24 25
25 23 20 19 18 18 17 17 17 17 17 17 17 17 17 17 17 17 18 18 17 17 16 16 17 17 17 17 16 17 18 19 21 22 23 24 24 24 24 25 25 26 26 27 27 27 28 28 29 30 30 31 31 32 32 32 32 32 32 31 31 30 29 28 27 26 25 25 25
24 22 20 19 18 18 18 18 18 19 19 19 19 19 18 18 18 18 18 18 18 17 16 16 17 17 17 16 16 17 19 20 22 23 23 24 24 24 24 25 25 26 26 27 27 27 28 29 30 31 32 33 34 34 35 35 35 35 34 33 32 31 29 28 27 26 25 25 25
23 20 19 18 18 19 19 20 20 20 20 20 20 20 20 19 18 18 18 18 17 17 16 16 15 15 15 16 17 18 20 21 22 23 23 24 24 24 24 25 26 26 27 27 27 27 28 29 30 31 33 34 35 36 36 37 37 36 35 34 32 31 29 27 26 25 24 24 23
21 19 18 18 18 19 20 20 21 21 21 21 21 21 20 19 18 17 17 17 17 16 16 15 14 14 15 16 18 19 21 22 22 23 23 23 24 24 25 25 26 27 27 27 27 27 28 28 29 31 32 34 35 36 37 38 37 36 35 33 30 29 27 26 25 24 23 23 23
20 18 17 18 19 20 21 21 22 22 22 22 22 21 20 19 18 17 16 16 16 16 15 15 15 15 16 18 19 21 22 22 23 23 23 23 24 25 25 26 27 27 27 27 27 28 28 29 29 31 32 34 35 37 37 37 37 35 32 30 28 26 25 24 24 23 23 24 23
19 18 17 18 19 20 21 22 23 23 23 23 23 21 20 18 17 16 15 15 15 15 15 15 16 17 18 19 21 22 22 22 23 23 23 23 24 25 25 26 27 27 27 27 27 28 28 29 30 31 33 34 36 37 37 37 35 32 29 27 25 24 24 24 24 24 24 24 24
18 17 17 18 19 20 22 23 24 24 24 23 22 21 19 17 16 15 15 15 15 15 16 16 17 18 19 20 21 22 22 22 22 22 22 23 24 25 25 26 27 27 27 27 28 28 29 30 31 32 33 35 36 37 36 35 32 29 26 25 24 24 24 25 25 25 25 24 23
Wind_Direction
336 335 334 333 331 330 329 328 328 328 328 329 329 329 328 328 328 327 327 327 328 328 327 327 326 326 325 323 321 318 315 313 310 306 300 294 289 287 288 290 291 291 291 290 290 287 282 275 268 261 257 254 254 257 262 267 271 276 280 282 283 283 283 284 285 285 285 286 287
334 334 333 332 331 331 331 330 329 329 329 328 329 329 328 328 327 327 327 327 328 328 327 326 326 325 325 324 322 318 315 311 308 304 299 293 288 286 286 284 281 277 272 270 270 275 282 288 286 279 271 266 266 270 276 280 284 288 292 294 295 295 294 294 293 292 291 291 292
334 333 333 333 333 333 333 333 332 331 330 329 329 329 328 327 326 326 326 326 326 326 326 326 326 326 326 325 323 319 314 309 304 300 298 295 292 288 285 280 274 267 261 257 256 263 283 306 315 315 311 308 306 305 305 305 305 303 303 303 304 303 302 301 300 299 298 298 298
335 335 335 335 336 336 335 334 333 331 330 329 328 327 326 325 325 325 325 324 324 325 326 327 327 327 326 325 322 318 313 307 302 298 297 295 293 288 283 278 271 263 257 254 259 275 298 317 327 331 331 332 331 329 327 324 320 316 313 312 311 309 308 307 306 306 306 307 307
338 338 338 338 337 337 335 334 333 332 330 328 327 326 325 325 324 324 324 323 323 324 325 326 327 326 325 323 320 316 312 307 303 300 297 295 292 288 284 280 276 271 269 273 288 304 316 323 328 331 333 335 335 335 334 331 328 325 323 320 318 317 316 316 317 318 320 321 322
340 340 339 339 338 337 336 334 333 332 330 329 328 327 326 325 324 324 324 324 324 324 324 325 325 324 322 320 318 315 313 310 306 303 300 297 292 288 284 282 282 285 291 301 312 319 323 325 325 327 329 331 333 335 335 334 333 331 330 328 327 325 326 328 330 331 333 335 336
343 342 341 340 339 338 336 335 334 332 331 330 330 329 328 327 326 326 326 325 324 324 324 324 323 321 319 318 317 316 315 313 310 306 302 297 292 287 283 282 286 296 308 317 321 324 325 326 327 328 330 333 335 337 337 336 335 335 335 335 333 333 333 335 335 336 337 339 340
343 343 342 341 339 338 337 336 335 334 333 332 332 331 330 329 329 328 327 326 326 325 324 323 321 319 318 316 316 316 315 314 311 307 302 296 290 286 284 288 297 309 318 322 324 325 327 330 332 334 337 338 340 339 339 338 338 339 339 339 338 337 337 336 336 336 336 337 338
344 343 342 340 339 338 337 336 335 335 334 333 333 333 332 331 330 329 328 328 326 325 324 322 320 318 316 315 314 314 314 313 311 307 301 294 289 290 297 306 314 319 322 324 325 328 331 335 338 341 343 345 345 343 342 341 341 341 341 341 341 340 339 337 336 336 336 336 336
344 343 341 340 339 338 337 336 335 335 334 334 334 333 332 331 330 330 329 327 326 325 323 321 319 317 315 314 313 312 312 312 311 307 300 294 297 308 319 324 326 326 327 329 334 338 341 344 347 349 349 350 349 347 345 343 342 341 341 341 342 341 340 338 337 336 336 335 335
343 342 340 339 338 337 336 335 335 335 335 335 335 334 333 332 331 330 328 327 326 324 322 319 318 316 314 312 311 310 310 311 311 307 300 299 312 325 330 331 333 336 340 344 348 350 351 352 353 353 353 352 350 347 344 342 340 340 340 340 340 340 339 338 337 336 335 334 334
341 340 338 338 337 336 336 335 335 335 336 336 336 335 334 333 332 331 329 327 325 323 321 319 318 316 313 311 309 307 308 310 310 305 300 306 323 334 337 339 343 349 353 356 356 355 354 353 353 352 352 350 348 346 343 340 339 337 337 336 336 336 336 336 335 334 333 332 331
339 338 338 337 337 336 336 336 336 337 337 337 337 337 336 335 335 333 330 328 326 324 323 322 320 317 313 309 306 305 305 307 305 301 300 314 331 340 345 350 354 357 358 357 355 353 351 350 349 349 348 346 344 342 339 336 334 333 333 332 333 333 333 333 332 332 330 329 328
339 338 338 337 337 337 336 337 337 338 339 339 339 339 339 338 338 336 333 330 329 328 328 328 325 319 312 307 303 301 300 300 298 298 306 325 340 350 357 0 0 358 355 352 350 347 346 344 344 343 342 340 338 336 333 331 329 328 328 329 329 330 330 330 330 329 328 326 326
339 339 339 338 338 337 338 338 339 339 340 340 341 342 342 342 341 339 336 335 335 337 339 339 332 321 310 302 297 294 293 293 295 305 322 340 353 3 6 3 358 352 347 342 339 337 335 334 333 333 333 332 330 329 327 325 324 324 325 326 326 327 327 327 327 326 325 324 323
340 340 339 339 338 338 339 339 340 340 340 341 342 344 345 345 344 342 340 340 343 347 351 349 337 321 306 297 292 290 290 295 309 328 344 355 4 9 6 359 350 342 336 331 326 323 321 320 321 321 322 323 322 322 321 321 321 322 322 323 324 325 325 325 324 323 322 321 321
340 340 340 340 339 339 340 340 341 341 341 341 344 346 347 347 346 344 344 346 349 355 357 354 340 320 305 299 299 302 309 326 343 353 358 2 6 5 359 350 341 333 327 322 317 314 312 311 313 314 316 316 317 317 317 318 319 320 321 321 322 322 322 321 321 320 319 318 317
341 341 341 340 340 340 341 342 342 342 342 343 345 347 347 347 347 346 347 350 354 359 360 354 341 326 317 319 325 334 344 353 357 360 1 1 360 356 349 341 333 327 322 318 316 314 312 312 313 313 314 314 314 314 315 316 317 318 319 319 319 319 319 319 318 317 316 314 314
341 341 341 341 341 341 342 343 344 343 343 344 345 346 346 346 347 347 350 354 358 1 0 353 343 335 334 341 349 357 0 1 359 358 355 353 350 346 340 333 327 323 320 318 317 316 316 316 315 314 314 313 313 313 314 315 316 316 317 317 317 317 317 317 316 315 313 311 310
341 342 342 342 341 342 343 345 346 345 344 344 344 344 344 344 345 348 353 359 2 2 359 352 344 341 344 350 357 2 3 0 356 352 349 347 344 340 334 328 324 321 319 319 318 318 318 317 316 315 313 313 313 314 314 315 315 315 316 316 316 317 317 316 315 313 311 310 308
342 342 343 342 342 343 345 347 347 347 346 345 345 344 342 341 342 347 355 1 3 1 355 349 344 342 344 348 354 357 358 356 352 349 347 345 341 336 330 325 322 321 320 320 320 320 319 318 316 315 314 314 314 314 314 314 314 314 314 315 316 316 316 316 315 313 311 309 307
343 343 343 343 343 343 345 347 348 348 347 347 347 345 342 339 340 345 353 360 1 357 351 346 343 341 342 345 350 353 354 353 351 349 347 343 338 332 328 324 323 323 322 322 321 320 319 318 316 315 315 314 314 313 313 313 313 313 314 314 315 316 316 316 315 313 312 311 310
344 344 343 343 342 343 344 346 346 347 348 349 348 346 342 339 339 343 350 356 357 354 350 346 343 342 343 346 349 351 351 350 348 346 343 338 333 329 326 324 324 324 324 322 321 320 318 317 316 315 314 314 313 312 312 312 313 313 314 315 316 316 317 316 316 315 315 314 313
345 344 343 342 342 342 343 344 344 345 346 348 347 345 343 340 340 343 347 351 352 351 349 346 344 343 344 346 348 349 347 345 343 340 337 332 329 326 324 323 323 322 321 319 318 317 316 315 315 314 313 313 312 312 313 313 314 315 316 317 317 318 318 318 317 317 317 316 315
345 344 343 342 341 341 341 341 341 341 343 343 344 343 342 341 342 343 345 345 345 345 345 345 344 343 343 343 343 341 340 338 336 334 331 327 324 323 322 321 320 319 318 317 316 315 315 315 314 314 314 313 313 314 314 315 316 317 318 318 318 318 318 318 318 317 316 315 314
345 344 342 341 340 340 340 339 338 338 338 338 339 339 340 341 341 341 341 340 340 340 342 344 344 344 342 340 337 335 333 332 331 329 327 325 324 323 322 321 320 318 317 316 315 315 315 315 315 315 315 315 315 315 316 316 317 318 319 319 318 318 317 316 315 315 314 312 311
345 343 341 340 340 341 340 338 336 336 335 335 335 336 338 339 339 338 338 338 338 339 341 344 344 342 339 335 333 331 329 328 327 326 325 324 324 323 322 320 319 318 317 317 316 316 316 316 316 316 316 316 316 316 316 316 317 317 317 317 316 315 313 312 310 309 309 309 308
344 343 341 339 340 340 340 338 337 336 336 334 333 334 335 336 335 334 335 337 338 340 341 341 339 336 332 329 327 325 324 323 323 323 324 324 323 322 321 320 319 319 318 317 317 317 317 317 317 317 317 317 316 316 315 315 315 314 314 313 311 309 307 305 304 304 304 306 306
344 342 340 338 339 339 340 340 340 340 338 336 334 333 333 332 331 330 331 333 335 336 337 335 331 327 324 321 320 319 319 319 320 322 322 322 321 321 320 319 319 318 318 317 317 318 318 318 318 317 317 317 316 315 315 314 313 312 311 309 307 305 302 300 300 301 303 304 306
343 341 339 338 337 338 339 341 342 342 340 337 334 332 331 329 329 328 328 330 330 331 330 327 324 321 318 316 315 316 317 319 321 322 322 321 320 320 320 319 319 318 318 318 318 318 318 318 318 318 318 317 316 315 315 313 312 311 310 309 307 305 303 302 303 304 305 305 305
343 341 339 337 336 336 337 338 339 340 338 336 333 331 330 329 329 328 328 328 327 326 325 323 320 318 317 317 319 321 323 324 323 323 321 321 321 321 321 320 320 319 319 318 319 319 319 319 319 319 319 319 318 317 316 315 313 312 311 310 309 308 307 307 307 308 308 307 305
342 340 338 336 335 334 334 334 335 334 334 332 331 330 329 329 328 327 326 325 325 325 325 324 322 322 324 326 329 329 328 325 323 322 321 322 322 322 322 322 321 321 320 320 320 320 321 321 322 322 322 322 322 321 319 318 316 314 313 312 311 311 310 309 309 309 308 306 305
340 338 337 335 334 333 332 331 329 328 328 327 327 327 327 328 327 326 325 324 324 326 327 327 327 328 330 332 332 329 325 322 321 321 322 323 323 323 323 323 323 323 323 323 323 323 324 324 325 325 325 325 324 324 323 322 320 319 317 316 315 313 312 310 309 307 305 303 302
339 337 335 335 334 333 331 329 327 325 324 324 324 325 326 327 327 327 325 324 324 325 326 327 328 329 331 331 328 324 321 319 320 321 322 323 323 323 323 324 325 325 326 326 327 327 327 327 327 327 327 327 326 326 326 326 325 324 322 321 319 316 314 311 308 305 302 300 299
337 335 333 333 334 333 331 329 327 325 324 323 323 324 325 326 327 327 325 324 323 322 323 324 324 326 326 325 322 320 319 319 320 321 322 322 323 324 325 326 327 328 329 330 330 331 331 330 329 329 329 328 328 328 329 329 328 328 326 325 322 319 316 313 309 306 302 300 298
335 333 331 331 332 332 332 330 328 326 324 323 323 323 324 325 326 325 324 323 321 321 321 322 321 322 323 322 321 320 320 321 321 321 322 322 323 324 325 327 329 331 332 333 334 334 334 333 332 332 331 331 331 330 331 331 330 329 328 326 324 321 318 315 312 309 306 303 301
333 330 328 329 330 331 331 330 328 326 324 322 322 322 323 323 324 324 323 322 322 322 323 324 324 324 324 323 323 323 322 322 322 323 323 323 323 324 326 328 330 332 334 335 335 335 336 336 335 335 334 333 332 332 332 331 331 330 328 326 324 322 320 318 316 315 313 311 310
330 327 325 326 328 330 331 330 328 325 323 321 320 320 321 321 322 322 322 322 322 323 325 327 329 329 327 326 325 325 324 324 324 323 323 323 323 325 327 330 332 333 334 335 336 336 336 337 337 336 335 334 333 333 332 331 330 329 327 326 324 322 321 321 321 320 320 320 321
327 323 322 324 326 328 329 329 327 325 322 320 318 318 318 319 320 321 322 323 323 324 326 328 329 329 328 327 327 327 326 325 324 323 323 323 324 326 328 331 332 334 334 335 336 336 336 336 337 336 335 334 333 332 332 331 330 328 327 326 325 324 324 325 325 325 325 325 326
325 321 320 322 325 327 328 328 327 325 322 319 317 316 316 317 319 320 322 323 324 326 328 329 329 328 328 328 328 327 326 325 323 322 322 323 325 327 329 332 333 334 334 335 336 336 336 336 336 335 335 334 333 332 332 331 330 329 329 329 329 329 329 328 328 327 327 328 329
322 318 317 320 324 327 328 328 326 325 322 319 316 315 315 316 318 320 323 325 326 328 329 330 329 328 327 327 326 325 324 322 321 321 322 324 326 328 330 332 333 334 334 335 335 336 336 336 336 335 335 334 334 333 333 333 332 332 333 334 334 334 332 329 328 328 329 330 331